Regional Weather Roundup
Issued by NWS

Home | Current Version | Previous Version | Text Only | Print | Product List | Glossary On
Versions: 1 2 3 4 5 6 7 8 9 10 11 12 13 14 15 16 17 18 19 20 21 22 23 24 25 26 27 28
000
ASPQ40 PGUM 240212
RWRPQ
WEATHER ROUNDUP FOR THE MARIANAS AND MICRONESIA
NATIONAL WEATHER SERVICE TIYAN GU
1200 PM CHST MON APR 24 2017

GUZ001>004-240300-
MARIANA ISLANDS-

CITY           SKY/WX    TMP DP  RH WIND       PRES   REMARKS
GUAM AIRPORT   PTSUNNY  N/A N/A N/A E3        29.91S
ANDERSEN AFB   PTSUNNY   79  77  94 SW6       29.93F
ROTA AIRPORT   CLOUDY    82  75  78 SE14      29.92F
TINIAN AP      PTSUNNY   82  75  78 SE16      29.90F
SAIPAN AP      MOSUNNY   86  77  74 SE20      29.91F HX  97

$$

PMZ161-240300-
REPUBLIC OF PALAU-

CITY           SKY/WX    TMP DP  RH WIND       PRES   REMARKS
KOROR AP       PTSUNNY   84  77  79 E5        29.81F HX  94
KOROR WSO      CLOUDY    90  77  66 NW8       29.83S HX 102

$$

PMZ171>174-240300-
FEDERATED STATES OF MICRONESIA-

CITY           SKY/WX    TMP DP  RH WIND       PRES   REMARKS
YAP AIRPORT    LGT RAIN  82  79  89 VRB3      29.79F HX  93
CHUUK AP       CLOUDY    88  81  79 E9        29.83F HX 105
POHNPEI AP     CLOUDY    88  77  70 E12       29.85F HX 100
POHNPEI WSO    CLOUDY    86  77  74 NE8       29.88F HX  97
KOSRAE AP      LGT RAIN  79  77  94 E8        29.86F

$$

PMZ181-240300-
REPUBLIC OF THE MARSHALL ISLANDS-

CITY           SKY/WX    TMP DP  RH WIND       PRES   REMARKS
KWAJALEIN AP   MOSUNNY   84  77  79 E13G21    29.87F HX  94
MAJURO AP      NOT AVBL
MAJURO WSO     PTSUNNY   82  75  78 N3        29.84F

$$





USA.gov is the U.S. government's official web portal to all federal, state and local government web resources and services.